Location: Antioch Baptist Church
(32.6696°N, 85.7327°W)
Time: 12:18:49
(UTC+00:00)

IRS-1D - Pass Details

Date: 14 July 2020
Orbit: 739 x 817 km, 98.6° (Epoch: 09 August)

Event Time Altitude Azimuth Distance (km) Brightness Sun altitude
Rises 07:24:32 0° 20° (NNE) 3,179 7.8 -31.1°
Reaches altitude 10° 07:26:55 10° 26° (NNE) 2,251 6.8 -30.9°
Enters shadow 07:30:55 43° 73° (ENE) 1,031 4.3 -30.5°
